Regional Weather Roundup
Issued by NWS

Home | Current Version | Previous Version | Graphics & Text | Print | Product List | Glossary On
Versions: 1 2 3 4 5 6 7 8 9 10 11 12 13 14 15 16 17 18 19 20 21 22 23 24 25 26 27 28 29 30 31 32 33 34 35 36 37 38 39 40 41 42 43 44 45 46 47 48 49 50
000
ASUS43 KIND 202009
RWRIN

WEATHER ROUNDUP FOR INDIANA
NATIONAL WEATHER SERVICE INDIANAPOLIS IN
400 PM EDT WED AUG 20 2014

NOTE: "FAIR" INDICATES FEW OR NO CLOUDS BELOW 12,000 FEET WITH NO
SIGNIFICANT WEATHER AND/OR OBSTRUCTIONS TO VISIBILITY.

* - STATION DOES NOT REPORT WEATHER SUCH AS PRECIPITATION OR FOG.

+ - STATION NOT QUALITY CONTROLLED BY THE NATIONAL WEATHER SERVICE.
    USE DATA WITH CAUTION...ESPECIALLY DEWPOINT AND RELATIVE
    HUMIDITY OBSERVATIONS.

INZ001>003-010>013-019-020-202100-
NORTHWEST INDIANA

CITY           SKY/WX    TMP DP  RH WIND       PRES   REMARKS
GARY /AIRPORT/ PTSUNNY   86  63  45 SW12      29.90F
KNOX *+        SUNNY     84  64  50 W13       29.90F
LA PORTE +     MOSUNNY   82  64  54 W8        29.92F
MICHIGAN CITY+ PTSUNNY   81  63  54 SW7       29.91F
MONTICELLO +   CLOUDY    82  70  66 SW10      29.92F
RENSSELAER +   PTSUNNY   82  70  65 SW9       29.92F
VALPARAISO     MOSUNNY   84  63  49 W14       29.92F

$$

LMZ046-743>745-202100-
SOUTHERN LAKE MICHIGAN

STATION/POSITION TIME  TEMP WIND        PRES
                       AIR  DIR/SP/G
                 (UTC) (F)  (DEG/KT/KT) (MB)
BURNS HARBOR     2000   82  260/ 10/ 18   N/A
MICHIGAN CITY    2000   78  230/  9/ 13   N/A

$$

INZ004-005-014>016-021>024-202100-
NORTH CENTRAL INDIANA

CITY           SKY/WX    TMP DP  RH WIND       PRES   REMARKS
ELKHART        PTSUNNY   82  63  51 W8        29.92
GOSHEN         MOSUNNY   83  67  58 W10       29.92F
LOGANSPORT +   PTSUNNY   86  64  48 W9G17     29.93F
PERU/GRISSOM   MOSUNNY   85  69  59 W14       29.93F
ROCHESTER +    SUNNY     86  64  48 W10       29.93F
SOUTH BEND     PTSUNNY   82  32  16 SW9       29.91F
WARSAW +       PTSUNNY   82  64  54 W16       29.92F

$$

INZ006>009-017-018-025>027-202100-
NORTHEAST INDIANA

CITY           SKY/WX    TMP DP  RH WIND       PRES   REMARKS
ANGOLA *+      MOSUNNY   84  79  84 W12       29.91F HX  96
AUBURN +       SUNNY     84  61  45 W9G18     29.93S
FORT WAYNE     PTSUNNY   83  65  54 W13       29.92F
HUNTINGTON +   PTSUNNY   84  66  55 W16       29.92F

$$

INZ028-029-035-036-043>045-051>053-202100-
WEST CENTRAL INDIANA

CITY           SKY/WX    TMP DP  RH WIND       PRES   REMARKS
GREENCASTLE +  CLOUDY    72  70  94 CALM      29.94F
LAFAYETTE      CLOUDY    78  69  73 SW10      29.93F
TERRE HAUTE    CLOUDY    73  69  87 SW9       29.98F

$$

INZ030>032-037>040-046>048-054>057-064-065-202100-
CENTRAL INDIANA

CITY           SKY/WX    TMP DP  RH WIND       PRES   REMARKS
ANDERSON       PTSUNNY   82  64  54 W17G23    29.98F
CP ATTERBURY + CLOUDY    77  68  73 W7        29.97F
COLUMBUS       PTSUNNY   73  72  94 CALM      29.99F
FRANKFORT +    CLOUDY    79  69  71 W15       29.96F
GREENWOOD *+   CLOUDY    77  70  78 CALM      29.96F
INDIANAPOLIS   CLOUDY    75  66  73 W7        29.94F
-EAGLE CREEK   CLOUDY    76  65  68 VRB6      29.93F
KOKOMO *+      PTSUNNY   84  66  54 W13G21    29.93F
MARION +       MOSUNNY   83  62  48 W13       29.95F
MT COMFORT *+  CLOUDY    79  59  50 W10G22    29.97F
SHELBYVILLE    CLOUDY    79  65  62 W12G22    29.97F
ZIONSVILLE +   CLOUDY    78  66  67 W7        29.95F

$$

INZ033-034-041-042-049-050-058-059-202100-
EAST CENTRAL INDIANA

CITY           SKY/WX    TMP DP  RH WIND       PRES   REMARKS
MUNCIE         PTSUNNY   84  65  52 W13G20    29.95F

$$

INZ060-061-067>069-081>083-085>088-202100-
SOUTHWEST INDIANA

CITY           SKY/WX    TMP DP  RH WIND       PRES   REMARKS
EVANSVILLE     CLOUDY    82  65  56 N8        29.98F
WASHINGTON +   LGT RAIN  73  73  99 N9        29.97F

$$

INZ062-063-066-070>080-084-089>092-202100-
SOUTH CENTRAL AND SOUTHEAST INDIANA

CITY           SKY/WX    TMP DP  RH WIND       PRES   REMARKS
BLOOMINGTON    LGT RAIN  74  69  85 W6        29.97F

$$




USA.gov is the U.S. government's official web portal to all federal, state and local government web resources and services.